CW7520 Weather Reports


Display with metric or nautical units.
time (UTC)temp
F
wind
direction
speed
MPH
gust
MPH
rain 1hr
in
rain 24hr
in
rain mn
in
humidity
%
barometer
mb
20260831050904 70 0 0.0 0.0 0.00 0.00 0.00 49 1027.8
20260831050004 70 0 0.0 0.0 0.00 0.00 0.00 51 1027.9
20260831045403 70 0 0.0 0.0 0.00 0.00 0.00 51 1028.0
20260831044504 70 0 0.0 0.0 0.00 0.00 0.00 51 1028.3
20260831043613 70 0 0.0 0.0 0.00 0.00 0.00 51 1028.4
20260831042703 70 0 0.0 0.0 0.00 0.00 0.00 51 1028.5
20260831041808 70 0 0.0 0.0 0.00 0.00 0.00 52 1028.7
20260831040903 69 0 0.0 0.0 0.00 0.00 0.00 56 1028.8
20260831040008 69 0 0.0 0.0 0.00 0.00 0.00 55 1028.9
20260831035408 69 0 0.0 0.0 0.00 0.00 0.00 57 1028.9
20260831034718 69 0 0.0 0.0 0.00 0.00 0.00 56 1029.0
20260831033813 69 0 0.0 0.0 0.00 0.00 0.00 56 1029.2
20260831032713 69 0 0.0 0.0 0.00 0.00 0.00 56 1029.4
20260831032014 69 0 0.0 0.0 0.00 0.00 0.00 57 1029.5
20260831030905 68 0 0.0 0.0 0.00 0.00 0.00 58 1029.8
20260831030214 68 0 0.0 0.0 0.00 0.00 0.00 58 1029.9
20260831025403 68 0 0.0 0.0 0.00 0.00 0.00 59 1030.0
20260831024508 68 0 0.0 0.0 0.00 0.00 0.00 58 1030.1
20260831023815 67 0 0.0 0.0 0.00 0.00 0.00 57 1030.3
20260831022703 67 0 0.0 0.0 0.00 0.00 0.00 60 1030.5
20260831021810 67 0 0.0 0.0 0.00 0.00 0.00 58 1030.7
20260831021113 67 0 0.0 0.0 0.00 0.00 0.00 60 1030.9
20260831020010 66 0 0.0 0.0 0.00 0.00 0.00 62 1031.0
20260831015615 66 0 0.0 0.0 0.00 0.00 0.00 60 1031.2
20260831014503 65 0 0.0 0.0 0.00 0.00 0.00 64 1031.3
20260831013605 64 0 0.0 0.0 0.00 0.00 0.00 65 1031.4
20260831012708 64 0 0.0 0.0 0.00 0.00 0.00 65 1031.5
20260831011808 64 0 0.0 0.0 0.00 0.00 0.00 65 1031.5
20260831010908 63 0 0.0 0.0 0.00 0.00 0.00 65 1031.6
20260831010008 63 0 0.0 0.0 0.00 0.00 0.00 66 1031.8
20260831005613 63 0 0.0 0.0 0.00 0.00 0.00 66 1031.8
20260831004503 62 0 0.0 0.0 0.00 0.00 0.00 68 1031.9
20260831003605 61 0 0.0 0.0 0.00 0.00 0.00 69 1032.0
20260831002703 60 0 0.0 0.0 0.00 0.00 0.00 71 1032.1
20260831001813 60 0 0.0 0.0 0.00 0.00 0.00 72 1032.2
20260831000905 59 0 0.0 0.0 0.00 0.00 0.00 75 1032.2
20260831000008 58 0 0.0 0.0 0.00 0.00 0.00 76 1032.2
20260830235405 57 0 0.0 0.0 0.00 0.00 0.00 76 1032.2
20260830234508 57 0 0.0 0.0 0.00 0.00 0.00 78 1032.2
20260830233603 56 0 0.0 0.0 0.00 0.00 0.00 80 1032.3
20260830232919 55 0 0.0 0.0 0.00 0.00 0.00 83 1032.3
20260830232018 54 0 0.0 0.0 0.00 0.00 0.00 84 1032.3
20260830230905 53 0 0.0 0.0 0.00 0.00 0.00 85 1032.2
20260830230227 53 0 0.0 0.0 0.00 0.00 0.00 86 1032.2
20260830225403 52 0 0.0 0.0 0.00 0.00 0.00 87 1032.2
20260830224504 52 0 0.0 0.0 0.00 0.00 0.00 88 1032.4
20260830223813 52 0 0.0 0.0 0.00 0.00 0.00 88 1032.4
20260830222703 52 0 0.0 0.0 0.00 0.00 0.00 88 1032.4
20260830221805 51 0 0.0 0.0 0.00 0.00 0.00 89 1032.4
20260830220903 51 0 0.0 0.0 0.00 0.00 0.00 89 1032.4
20260830220008 51 0 0.0 0.0 0.00 0.00 0.00 88 1032.3
20260830215403 51 0 0.0 0.0 0.00 0.00 0.00 89 1032.3
20260830214505 50 0 0.0 0.0 0.00 0.00 0.00 89 1032.3
20260830213605 50 0 0.0 0.0 0.00 0.00 0.00 88 1032.2
20260830212710 50 0 0.0 0.0 0.00 0.00 0.00 88 1032.1
20260830211805 50 0 0.0 0.0 0.00 0.00 0.00 88 1032.0
20260830210903 50 0 0.0 0.0 0.00 0.00 0.00 88 1032.0
20260830210013 50 0 0.0 0.0 0.00 0.00 0.00 88 1032.0
20260830205403 50 0 0.0 0.0 0.00 0.00 0.00 88 1032.0
20260830204505 50 0 0.0 0.0 0.00 0.00 0.00 88 1032.1
20260830203605 50 0 0.0 0.0 0.00 0.00 0.00 88 1032.1
20260830202705 50 0 0.0 0.0 0.00 0.00 0.00 88 1032.1
20260830201805 50 0 0.0 0.0 0.00 0.00 0.00 88 1032.0
20260830200905 50 0 0.0 0.0 0.00 0.00 0.00 88 1032.0
20260830200218 50 0 0.0 0.0 0.00 0.00 0.00 88 1032.0
20260830195403 50 0 0.0 0.0 0.00 0.00 0.00 88 1032.0
20260830194503 50 0 0.0 0.0 0.00 0.00 0.00 88 1032.0
20260830193605 50 0 0.0 0.0 0.00 0.00 0.00 88 1032.0
20260830192705 50 0 0.0 0.0 0.00 0.00 0.00 88 1032.0
20260830191805 50 0 0.0 0.0 0.00 0.00 0.00 88 1031.8
20260830190903 50 0 0.0 0.0 0.00 0.00 0.00 88 1031.8
20260830190217 50 0 0.0 0.0 0.00 0.00 0.00 88 1031.8
20260830185405 50 0 0.0 0.0 0.00 0.00 0.00 88 1031.8
20260830184504 50 0 0.0 0.0 0.00 0.00 0.00 88 1031.8
20260830183605 50 0 0.0 0.0 0.00 0.00 0.00 88 1031.9
20260830182705 50 0 0.0 0.0 0.00 0.00 0.00 88 1031.9
20260830182014 50 0 0.0 0.0 0.00 0.00 0.00 88 1032.0
20260830180905 50 0 0.0 0.0 0.00 0.00 0.00 88 1032.0
20260830180005 50 0 0.0 0.0 0.00 0.00 0.00 88 1032.0
20260830175403 50 0 0.0 0.0 0.00 0.00 0.00 88 1032.0
20260830174716 50 0 0.0 0.0 0.00 0.00 0.00 88 1032.1
20260830173603 50 0 0.0 0.0 0.00 0.00 0.00 88 1032.2
20260830172705 50 0 0.0 0.0 0.00 0.00 0.00 88 1032.2
20260830171803 50 0 0.0 0.0 0.00 0.00 0.00 88 1032.2
20260830170905 50 0 0.0 0.0 0.00 0.00 0.00 88 1032.2
20260830170005 50 0 0.0 0.0 0.00 0.00 0.00 88 1032.3
20260830165404 50 0 0.0 0.0 0.00 0.00 0.00 88 1032.3
20260830164503 50 0 0.0 0.0 0.00 0.00 0.00 88 1032.4
20260830163605 50 0 0.0 0.0 0.00 0.00 0.00 88 1032.4
20260830162705 50 0 0.0 0.0 0.00 0.00 0.00 88 1032.4
20260830161805 50 0 0.0 0.0 0.00 0.00 0.00 87 1032.4
20260830160903 50 0 0.0 0.0 0.00 0.00 0.00 87 1032.5
20260830160004 50 0 0.0 0.0 0.00 0.00 0.00 87 1032.5
20260830155405 50 0 0.0 0.0 0.00 0.00 0.00 87 1032.6
20260830154503 50 0 0.0 0.0 0.00 0.00 0.00 87 1032.6
20260830153603 50 0 0.0 0.0 0.00 0.00 0.00 87 1032.6
20260830152916 50 0 0.0 0.0 0.00 0.00 0.00 87 1032.6
20260830151805 50 0 0.0 0.0 0.00 0.00 0.00 87 1032.6
20260830150903 50 0 0.0 0.0 0.00 0.00 0.00 87 1032.8
20260830150005 50 0 0.0 0.0 0.00 0.00 0.00 87 1032.7
20260830145405 50 0 0.0 0.0 0.00 0.00 0.00 87 1032.7
20260830144505 50 0 0.0 0.0 0.00 0.00 0.00 87 1032.6
20260830143603 50 0 0.0 0.0 0.00 0.00 0.00 87 1032.6
20260830142705 50 0 0.0 0.0 0.00 0.00 0.00 87 1032.7
20260830141805 50 0 0.0 0.0 0.00 0.00 0.00 86 1032.8
20260830140904 50 0 0.0 0.0 0.00 0.00 0.00 86 1032.8
20260830140213 50 0 0.0 0.0 0.00 0.00 0.00 86 1032.9
20260830135405 50 0 0.0 0.0 0.00 0.00 0.00 86 1033.0
20260830134503 50 0 0.0 0.0 0.00 0.00 0.00 85 1033.0
20260830133605 50 0 0.0 0.0 0.00 0.00 0.00 85 1033.2
20260830132915 50 0 0.0 0.0 0.00 0.00 0.00 85 1033.1
20260830131803 50 0 0.0 0.0 0.00 0.00 0.00 84 1033.2
20260830130905 50 0 0.0 0.0 0.00 0.00 0.00 82 1033.2
20260830130219 50 0 0.0 0.0 0.00 0.00 0.00 83 1033.2
20260830125613 50 0 0.0 0.0 0.00 0.00 0.00 83 1033.2
20260830124714 50 0 0.0 0.0 0.00 0.00 0.00 82 1033.1
20260830123604 50 0 0.0 0.0 0.00 0.00 0.00 82 1033.0
20260830122705 50 0 0.0 0.0 0.00 0.00 0.00 82 1033.0
20260830121808 50 0 0.0 0.0 0.00 0.00 0.00 82 1033.0
20260830120903 50 0 0.0 0.0 0.00 0.00 0.00 82 1033.0
20260830120219 51 0 0.0 0.0 0.00 0.00 0.00 82 1033.0
20260830115404 51 0 0.0 0.0 0.00 0.00 0.00 82 1033.0
20260830114508 51 0 0.0 0.0 0.00 0.00 0.00 82 1032.9
20260830113613 51 0 0.0 0.0 0.00 0.00 0.00 81 1033.0
20260830112704 51 0 0.0 0.0 0.00 0.00 0.00 81 1032.9
20260830111808 52 0 0.0 0.0 0.00 0.00 0.00 81 1032.9
20260830110903 52 0 0.0 0.0 0.00 0.00 0.00 80 1032.9
20260830110004 52 0 0.0 0.0 0.00 0.00 0.00 80 1032.8
20260830105403 52 0 0.0 0.0 0.00 0.00 0.00 80 1032.7
20260830104504 53 0 0.0 0.0 0.00 0.00 0.00 79 1032.6
20260830103603 53 0 0.0 0.0 0.00 0.00 0.00 79 1032.6
20260830102708 53 0 0.0 0.0 0.00 0.00 0.00 79 1032.6
20260830101804 54 0 0.0 0.0 0.00 0.00 0.00 79 1032.5
20260830100903 54 0 0.0 0.0 0.00 0.00 0.00 78 1032.4
20260830100004 54 0 0.0 0.0 0.00 0.00 0.00 78 1032.4
20260830095614 55 0 0.0 0.0 0.00 0.00 0.00 78 1032.4
20260830094503 55 0 0.0 0.0 0.00 0.00 0.00 77 1032.3
20260830093603 56 0 0.0 0.0 0.00 0.00 0.00 76 1032.3
20260830092704 56 0 0.0 0.0 0.00 0.00 0.00 75 1032.1
20260830091803 57 0 0.0 0.0 0.00 0.00 0.00 75 1032.2
20260830090904 57 0 0.0 0.0 0.00 0.00 0.00 73 1032.1
20260830090008 58 0 0.0 0.0 0.00 0.00 0.00 73 1032.1
20260830085613 58 0 0.0 0.0 0.00 0.00 0.00 73 1032.0
20260830084714 59 0 0.0 0.0 0.00 0.00 0.00 72 1032.0
20260830083604 59 0 0.0 0.0 0.00 0.00 0.00 71 1031.8
20260830082708 60 0 0.0 0.0 0.00 0.00 0.00 70 1031.8
20260830081808 61 0 0.0 0.0 0.00 0.00 0.00 69 1031.7
20260830080904 61 0 0.0 0.0 0.00 0.00 0.00 68 1031.6
20260830080004 62 0 0.0 0.0 0.00 0.00 0.00 68 1031.6
20260830075404 62 0 0.0 0.0 0.00 0.00 0.00 68 1031.6
20260830074508 62 0 0.0 0.0 0.00 0.00 0.00 67 1031.6
20260830073608 63 0 0.0 0.0 0.00 0.00 0.00 66 1031.5
20260830072708 63 0 0.0 0.0 0.00 0.00 0.00 65 1031.6
20260830071813 64 0 0.0 0.0 0.00 0.00 0.00 63 1031.5
20260830071114 64 0 0.0 0.0 0.00 0.00 0.00 62 1031.5
20260830070003 65 0 0.0 0.0 0.00 0.00 0.00 61 1031.5
20260830065408 65 0 0.0 0.0 0.00 0.00 0.00 61 1031.5
20260830064503 65 0 0.0 0.0 0.00 0.00 0.00 60 1031.5
20260830063813 65 0 0.0 0.0 0.00 0.00 0.00 60 1031.4
20260830062704 65 0 0.0 0.0 0.00 0.00 0.00 59 1031.5
20260830061808 66 0 0.0 0.0 0.00 0.00 0.00 59 1031.5
20260830060903 66 0 0.0 0.0 0.00 0.00 0.00 58 1031.6
20260830060004 66 0 0.0 0.0 0.00 0.00 0.00 57 1031.6
20260830055403 66 0 0.0 0.0 0.00 0.00 0.00 58 1031.6
20260830054504 65 0 0.0 0.0 0.00 0.00 0.00 58 1031.7
20260830053813 66 0 0.0 0.0 0.00 0.00 0.00 56 1031.7
20260830052704 66 0 0.0 0.0 0.00 0.00 0.00 55 1031.8
20260830051803 66 0 0.0 0.0 0.00 0.00 0.00 57 1031.7